Nausori, Fiji

2:04 AM +13 on December 13, 2017 (GMT +1300)
Nausori International

Weather History for NFNA - October, 2012

Change the Weather History Date:

Tuesday, October 16, 2012

  Actual Average Record
Temperature  
Mean Temperature 78 °F -  
Max Temperature 81 °F 83 °F - ()
Min Temperature 74 °F 72 °F - ()
Cooling Degree Days 12    
Growing Degree Days 28 (Base 50)    
Moisture  
Dew Point 74 °F    
Average Humidity 90    
Maximum Humidity 100    
Minimum Humidity 62    
Precipitation  
Precipitation 1.18 in 0.33 in - ()
Sea Level Pressure  
Sea Level Pressure 29.95 in    
Wind  
Wind Speed 4 mph ()    
Max Wind Speed 12 mph    
Max Gust Speed -    
Visibility 8.9 miles    
Events Rain    
T = Trace of Precipitation, MM = Missing Value Source: Averaged Metar Reports

Daily Weather History Graph

Daily Weather History Graph

Search for Another Location

Airport or City:

Trip Planner

Search our weather history database for the weather conditions in past years. The results will help you decide how hot, cold, wet, or windy it might be!

Date:

Astronomy

Oct. 16, 2012 Rise Set
Actual Time 5:36 AM +12 6:06 PM +12
Civil Twilight 5:14 AM +12 6:28 PM +12
Nautical Twilight 4:48 AM +12 6:54 PM +12
Astronomical Twilight 4:22 AM +12 7:20 PM +12
Moon 5:43 AM +12 (10/16) 6:48 PM +12 (10/16)
Length of Visible Light 13h 14m
Length of Day
12h 30m
New Moon, 0% of the Moon is Illuminated
Oct 16
New Moon
Oct 22
First Quarter
Oct 30
Full
Nov 7
Last Quarter
Nov 14
New

Hourly Weather History & Observations

Time (+12) Temp. Heat Index Dew Point Humidity Pressure Visibility Wind Dir Wind Speed Gust Speed Precip Events Conditions
12:00 AM 77.0 °F - 75.2 °F 94% 29.98 in 24.9 mi East 5.8 mph - N/A   Mostly Cloudy
1:00 AM 77.0 °F - 75.2 °F 94% 29.95 in 24.9 mi Calm Calm - N/A   Mostly Cloudy
2:00 AM 77.0 °F - 73.4 °F 89% 29.95 in 24.9 mi East 3.5 mph - N/A   Scattered Clouds
3:00 AM 77 °F - 74 °F 86% 29.94 in 31 mi East 4.6 mph - -   Partly Cloudy
3:00 AM 77.0 °F - 73.4 °F 89% 29.92 in 24.9 mi East 4.6 mph - N/A   Scattered Clouds
4:00 AM 77.0 °F - 73.4 °F 89% 29.92 in 24.9 mi ESE 5.8 mph - N/A   Scattered Clouds
5:00 AM 77.0 °F - 73.4 °F 89% 29.92 in 24.9 mi Calm Calm - N/A   Scattered Clouds
6:00 AM 76 °F - 74 °F 90% 29.95 in 12 mi Calm Calm - -   Partly Cloudy
6:00 AM 75.2 °F - 73.4 °F 94% 29.95 in 24.9 mi Calm Calm - N/A   Mostly Cloudy
7:00 AM 78.8 °F - 75.2 °F 89% 29.95 in 31.1 mi East 5.8 mph - N/A   Mostly Cloudy
8:00 AM 78.8 °F - 73.4 °F 83% 29.98 in 31.1 mi East 5.8 mph - N/A   Mostly Cloudy
9:00 AM 81 °F - 70 °F 62% 29.99 in 31 mi Calm Calm - -   Partly Cloudy
9:00 AM 80.6 °F 86.2 °F 75.2 °F 84% 29.98 in 31.1 mi East 5.8 mph - N/A   Mostly Cloudy
10:00 AM 80.6 °F 86.2 °F 75.2 °F 84% 29.95 in 31.1 mi East 5.8 mph - N/A   Scattered Clouds
12:00 PM 77 °F - 72 °F 79% 29.96 in 12 mi East 5.8 mph - -   Partly Cloudy
12:00 PM 77.0 °F - 75.2 °F 94% 29.95 in 12.4 mi East 5.8 mph - N/A   Scattered Clouds
1:00 PM 78.8 °F - 77.0 °F 94% 29.92 in 12.4 mi East 5.8 mph - N/A   Scattered Clouds
2:00 PM 78.8 °F - 75.2 °F 89% 29.92 in 18.6 mi East 11.5 mph - N/A   Mostly Cloudy
3:00 PM 75 °F - 75 °F 100% 29.91 in 2 mi NE 9.2 mph - - Rain Rain
6:00 PM 74 °F - 74 °F 100% 29.94 in 2 mi Calm Calm - - Rain Rain
7:00 PM 75.2 °F - 75.2 °F 100% 29.95 in 3.1 mi ENE 6.9 mph - N/A Rain Rain
9:00 PM 75 °F - 75 °F 100% 29.96 in 2 mi NE 5.8 mph - - Rain Rain
11:00 PM 75.2 °F - 75.2 °F 100% 29.98 in 12.4 mi Calm Calm - N/A   Mostly Cloudy